Location: Berg
(47.2344°N, 9.5296°E)
Time: 16:29:49
(UTC+00:00)

AAUSAT CUBESAT 2 - Pass Details

Date: 03 December 2021
Orbit: 572 x 586 km, 97.5° (Epoch: 16 January)

Event Time Altitude Azimuth Distance (km) Brightness Sun altitude
Rises 16:13:51 0° 188° (S) 2,769 ? -6.9°
Reaches altitude 10° 16:16:09 10° 198° (SSW) 1,875 ? -7.2°
Maximum altitude 16:19:51 33° 264° (W) 974 ? -7.8°
Drops below altitude 10° 16:23:33 10° 329° (NNW) 1,887 ? -8.4°
Sets 16:25:53 0° 339° (NNW) 2,791 ? -8.7°
